TimeEDT,TemperatureF,Dew PointF,Humidity,Sea Level PressureIn,VisibilityMPH,Wind Direction,Wind SpeedMPH,Gust SpeedMPH,PrecipitationIn,Events,Conditions,WindDirDegrees,DateUTC
12:53 AM,66.0,57.9,75,30.14,10.0,South,3.5,-,N/A,,Mostly Cloudy,190,2013-05-28 04:53:00
1:53 AM,64.9,57.0,75,30.14,10.0,South,3.5,-,N/A,,Clear,190,2013-05-28 05:53:00
2:53 AM,64.9,57.0,75,30.13,10.0,SSW,3.5,-,N/A,,Clear,200,2013-05-28 06:53:00
3:53 AM,64.9,57.9,78,30.12,10.0,South,9.2,-,N/A,,Clear,190,2013-05-28 07:53:00
4:53 AM,64.0,59.0,84,30.12,10.0,South,6.9,-,N/A,,Clear,190,2013-05-28 08:53:00
5:53 AM,63.0,59.0,87,30.13,10.0,South,4.6,-,N/A,,Clear,190,2013-05-28 09:53:00
6:53 AM,63.0,59.0,87,30.17,10.0,SSW,4.6,-,N/A,,Clear,200,2013-05-28 10:53:00
7:53 AM,64.0,59.0,84,30.18,10.0,Calm,Calm,-,N/A,,Clear,0,2013-05-28 11:53:00
8:53 AM,69.1,61.0,75,30.18,10.0,SSW,3.5,-,N/A,,Clear,200,2013-05-28 12:53:00
9:53 AM,73.0,61.0,66,30.18,10.0,SSW,8.1,-,N/A,,Clear,200,2013-05-28 13:53:00
10:53 AM,73.0,60.1,64,30.18,10.0,Variable,4.6,-,N/A,,Clear,0,2013-05-28 14:53:00
11:53 AM,75.0,61.0,62,30.18,10.0,Variable,6.9,-,N/A,,Clear,0,2013-05-28 15:53:00
12:53 PM,77.0,62.1,60,30.17,10.0,SSW,11.5,-,N/A,,Clear,210,2013-05-28 16:53:00
1:53 PM,79.0,62.1,56,30.15,10.0,South,6.9,-,N/A,,Clear,180,2013-05-28 17:53:00
2:53 PM,81.0,62.1,52,30.14,10.0,South,10.4,19.6,N/A,,Clear,190,2013-05-28 18:53:00
3:53 PM,82.0,61.0,49,30.12,10.0,SSW,8.1,-,N/A,,Partly Cloudy,200,2013-05-28 19:53:00
4:53 PM,81.0,61.0,50,30.12,10.0,South,12.7,23.0,N/A,,Partly Cloudy,190,2013-05-28 20:53:00
5:53 PM,80.1,59.0,48,30.12,10.0,SSW,10.4,19.6,N/A,,Clear,200,2013-05-28 21:53:00
6:53 PM,79.0,60.1,52,30.11,10.0,Variable,6.9,-,N/A,,Clear,0,2013-05-28 22:53:00
7:53 PM,77.0,60.1,56,30.11,10.0,South,5.8,-,N/A,,Clear,190,2013-05-28 23:53:00
8:53 PM,73.9,60.1,62,30.11,10.0,South,6.9,-,N/A,,Clear,190,2013-05-29 00:53:00
9:53 PM,72.0,60.1,66,30.12,10.0,South,6.9,-,N/A,,Clear,190,2013-05-29 01:53:00
10:53 PM,71.1,60.1,68,30.13,10.0,South,4.6,-,N/A,,Clear,190,2013-05-29 02:53:00
11:53 PM,69.1,61.0,75,30.13,10.0,South,4.6,-,N/A,,Clear,190,2013-05-29 03:53:00